sat.trackr.live / text

‹ back to catalog

STARLINK-30753

NORAD 58175 · 2023-167A

PAYLOAD ACTIVE UNKNOWN

§ Identity

Operator
Country
US
Launch date
2023-10-30
Launch site
AFETR
Launch vehicle
Mass (kg)
RCS (m²)

Purposes: comms

External: N2YO · Heavens-Above · Gunter

§ Orbital elements

Epoch: 2026-05-25T04:33:37.372896Z

Period
94.27 min
Inclination
43.0041°
Eccentricity
0.0001272
Mean motion
15.27577162 rev/d
Perigee alt
482.2 km
Apogee alt
483.9 km
Semi-major
6,861.2 km
B*
3.8675e-5
RAAN
71.4782°
Arg perigee
246.0581°
Mean anomaly
114.0138°
Rev number
14,268

§ Raw data

STARLINK-307531 58175U 23167A   26145.19001589  .00000802  00000+0  38675-4 0  99982 58175  43.0041  71.4782 0001272 246.0581 114.0138 15.27577162142689

JSON: /api/v1/satellites/58175 · /tle

For live sub-satellite position, see the globe view (requires WebGL).

§ Visibility from observer

Set your observer location to see the next 7 days of passes ≥ 10°. The values pass through the URL so the page stays shareable.

No JS? Fill the form by hand. The geolocation button needs JavaScript.